This is the latest recevied weather packets stored in our database for station/object ANJALA. If no packets are shown the sender has not sent any weather packets the latest 10 day(s).
| Time | Temp. | Humidity | Pressure | Rain* | Wind** | Luminosity | Snow |
|---|---|---|---|---|---|---|---|
| 1788531884 | 15° C | 87% | - | 2.29 mm | - | - | - |
| 1788528283 | 12.78° C | 96% | - | 1.27 mm | - | - | - |
| 1788527083 | 14.44° C | 75% | - | 1.27 mm | - | - | - |
| 1788525884 | 16.67° C | 60% | - | 0 mm | - | - | - |
| 1788524683 | 16.11° C | 60% | - | 0 mm | - | - | - |
| 1788523483 | 16.67° C | 61% | - | 0 mm | - | - | - |
| 1788522285 | 15.56° C | 72% | - | 0 mm | - | - | - |
| 1788521083 | 17.78° C | 63% | - | 0 mm | - | - | - |
| 1788519884 | 18.89° C | 60% | - | 0 mm | - | - | - |
| 1788517483 | 17.78° C | 63% | - | 0 mm | - | - | - |
| 1788516283 | 16.67° C | 69% | - | 0 mm | - | - | - |
| 1788514873 | 16.11° C | 69% | - | 0 mm | - | - | - |
| 1788512683 | 15.56° C | 75% | - | 0 mm | - | - | - |
| 1788510283 | 14.44° C | 84% | - | 0 mm | - | - | - |
| 1788509083 | 13.89° C | 87% | - | 0 mm | - | - | - |
| 1788506682 | 12.78° C | 88% | - | 0 mm | - | - | - |
| 1788505483 | 12.22° C | 92% | - | 0 mm | - | - | - |
| 1788504283 | 11.67° C | 92% | - | 0 mm | - | - | - |
| 1788503082 | 10.56° C | 95% | - | 0 mm | - | - | - |
| 1788501882 | 10.56° C | 95% | - | 0 mm | - | - | - |
| 1788500682 | 10.56° C | 96% | - | 0 mm | - | - | - |
| 1788499481 | 10° C | 99% | - | 0 mm | - | - | - |
| 1788498305 | 8.89° C | 99% | - | 0 mm | - | - | - |
| 1788497081 | 8.33° C | 99% | - | 0 mm | - | - | - |
| 1788495881 | 7.78° C | 99% | - | 0 mm | - | - | - |
* Rain latest hour (hover to see other rain measurements)
** Current wind speed in m/s (hover to see current wind gust speed)